Location: Sankt Anna
(58.3452°N, 16.7040°E)
Time: 17:11:09
(UTC+02:00)

SPROUT - Visible Passes

Search period start: 24 May 2019 00:00
Search period end: 03 June 2019 00:00
Orbit: 600 x 613 km, 97.9° (Epoch: 24 May)

Date Brightness Start Highest point End Pass type
(mag) Time Alt. Az. Time Alt. Az. Time Alt. Az.
24 May ? 00:34:27 16° S 00:37:54 73° WSW 00:42:12 10° NNW visible
24 May ? 02:12:24 10° WSW 02:14:31 13° W 02:16:39 10° NW visible
24 May ? 23:11:44 10° ESE 23:15:21 27° ENE 23:18:59 10° N visible
25 May ? 00:47:35 15° S 00:50:59 57° WSW 00:55:12 10° NNW visible
25 May ? 02:26:57 10° W 02:27:46 10° W 02:28:35 10° WNW visible
25 May ? 23:24:27 10° SE 23:28:18 33° ENE 23:32:08 10° N visible
26 May ? 01:00:43 15° S 01:04:04 45° W 01:08:11 10° NNW visible
26 May ? 23:37:14 10° SE 23:41:15 41° ENE 23:45:16 10° N visible
27 May ? 01:13:50 13° SSW 01:17:11 35° W 01:21:08 10° NNW visible
27 May ? 23:50:06 10° SE 23:54:14 51° ENE 23:58:23 10° N visible
28 May ? 01:26:58 12° SSW 01:30:18 28° W 01:34:02 10° NNW visible
29 May ? 00:03:13 11° SSE 00:07:13 64° ENE 00:11:28 10° NNW visible
29 May ? 01:40:06 10° SW 01:43:28 23° W 01:46:52 10° NW visible
29 May ? 22:42:06 10° E 22:44:58 18° NE 22:47:50 10° N visible
30 May ? 00:16:21 12° SSE 00:20:15 81° ENE 00:24:32 10° NNW visible
30 May ? 01:53:40 10° SW 01:56:39 18° W 01:59:37 10° NW visible
30 May ? 22:54:38 10° ESE 22:57:52 21° NE 23:01:05 10° N visible
31 May ? 00:29:29 13° SSE 00:33:17 80° WSW 00:37:33 10° NNW visible
31 May ? 02:07:27 10° WSW 02:09:51 15° W 02:12:13 10° NW visible
31 May ? 23:07:15 10° ESE 23:10:46 25° ENE 23:14:17 10° N visible
01 Jun ? 00:42:36 13° S 00:46:20 63° WSW 00:50:34 10° NNW visible
01 Jun ? 02:21:38 10° WSW 02:23:03 11° W 02:24:29 10° WNW visible
01 Jun ? 23:19:57 10° ESE 23:23:41 31° ENE 23:27:26 10° N visible
02 Jun ? 00:55:44 13° S 00:59:24 49° W 01:03:33 10° NNW visible
02 Jun ? 23:32:41 10° SE 23:36:38 38° ENE 23:40:34 10° N visible
